Weather History for Jackson, KY

Change the Weather History Date:

Tuesday, December 24, 2013

  Actual Average Record
Temperature  
Mean Temperature 25 °F 36 °F  
Max Temperature 31 °F 44 °F 68 °F (1982)
Min Temperature 18 °F 28 °F -10 °F (1983)
Degree Days  
Heating Degree Days 40 29  
Month to date heating degree days 554 629  
Since 1 July heating degree days 1441 1429  
Cooling Degree Days 0 0  
Month to date cooling degree days 0 0  
Year to date cooling degree days 1069 1154  
Moisture  
Dew Point 16 °F    
Average Humidity 62    
Maximum Humidity 81    
Minimum Humidity 42    
Precipitation  
Precipitation 0.01 in 0.14 in 1.70 in (1988)
Month to date precipitation 6.09 3.30  
Year to date precipitation 55.72 47.46  
Snow  
Snow 0.10 in 0.20 in - ()
Month to date snowfall 1.3 3.4  
Since 1 July snowfall 4.2 4.0  
Snow Depth 0.00 in    
Sea Level Pressure  
Sea Level Pressure 30.43 in    
Wind  
Wind Speed 6 mph (NW)    
Max Wind Speed 14 mph    
Max Gust Speed 22 mph    
Visibility 7 miles    
Events Snow    
T = Trace of Precipitation, MM = Missing Value Source: NWS Daily Summary

Daily Weather History Graph

Daily Weather History Graph

Search for Another Location

Airport:

Trip Planner

Search our weather history database for the weather conditions in past years. The results will help you decide how hot, cold, wet, or windy it might be!

Date:

Astronomy

Dec. 24, 2013 Rise Set
Actual Time 7:45 AM EST 5:20 PM EST
Civil Twilight 7:16 AM EST 5:49 PM EST
Nautical Twilight 6:43 AM EST 6:22 PM EST
Astronomical Twilight 6:11 AM EST 6:54 PM EST
Moon No Moon Rise 11:46 AM EST (12/24)
Length of Visible Light 10h 32m
Length of Day
9h 34m
Waning Gibbous, 59% of the Moon is Illuminated
Dec 24
Waning Gibbous
Dec 25
Last Quarter
Jan 1
New
Jan 7
First Quarter
Jan 15
Full

Hourly Weather History & Observations

Time (EST) Temp. Windchill Dew Point Humidity Pressure Visibility Wind Dir Wind Speed Gust Speed Precip Events Conditions
12:44 AM 30.0 °F 24.1 °F 24.1 °F 79% 30.32 in 10.0 mi NNW 5.8 mph - N/A   Overcast
12:53 AM 30.0 °F 24.1 °F 24.1 °F 79% 30.36 in 10.0 mi NW 5.8 mph - N/A   Overcast
1:31 AM 28.9 °F 23.9 °F 24.1 °F 82% 30.32 in 10.0 mi WNW 4.6 mph - N/A   Overcast
1:53 AM 28.9 °F 21.9 °F 23.0 °F 78% 30.35 in 10.0 mi WNW 6.9 mph - N/A   Overcast
2:39 AM 28.9 °F 22.8 °F 21.9 °F 75% 30.33 in 10.0 mi Variable 5.8 mph - N/A   Overcast
2:53 AM 28.0 °F 24.2 °F 21.9 °F 78% 30.36 in 10.0 mi Variable 3.5 mph - N/A   Overcast
3:10 AM 28.0 °F 21.7 °F 21.9 °F 78% 30.32 in 10.0 mi WNW 5.8 mph - N/A   Overcast
3:31 AM 28.0 °F 21.7 °F 21.9 °F 78% 30.32 in 10.0 mi West 5.8 mph - N/A   Overcast
3:40 AM 28.0 °F 20.0 °F 21.9 °F 78% 30.31 in 10.0 mi WNW 8.1 mph - N/A   Overcast
3:53 AM 28.0 °F 21.7 °F 21.0 °F 75% 30.36 in 10.0 mi Variable 5.8 mph - N/A   Overcast
4:53 AM 27.0 °F 23.0 °F 19.9 °F 75% 30.35 in 10.0 mi Variable 3.5 mph - N/A   Overcast
5:53 AM 26.1 °F 15.6 °F 19.9 °F 78% 30.37 in 10.0 mi West 11.5 mph - N/A   Overcast
6:53 AM 25.0 °F 14.8 °F 19.0 °F 78% 30.39 in 8.0 mi West 10.4 mph - 0.00 in Snow Light Snow
7:53 AM 25.0 °F 18.1 °F 19.0 °F 78% 30.41 in 4.0 mi West 5.8 mph - 0.00 in Snow Light Snow
8:53 AM 25.0 °F 14.8 °F 18.0 °F 75% 30.43 in 5.0 mi WNW 10.4 mph - 0.00 in Snow Light Snow
9:00 AM 25.0 °F 19.3 °F 18.0 °F 75% 30.40 in 4.0 mi Variable 4.6 mph - 0.00 in Snow Light Snow
9:03 AM 25.0 °F 18.1 °F 18.0 °F 75% 30.40 in 0.5 mi Variable 5.8 mph - 0.00 in Snow Snow
9:24 AM 24.1 °F 15.2 °F 17.1 °F 75% 30.40 in 2.5 mi NW 8.1 mph 18.4 mph 0.00 in Snow Light Snow
9:31 AM 24.1 °F 14.4 °F 17.1 °F 75% 30.41 in 3.0 mi WNW 9.2 mph 16.1 mph 0.00 in Snow Light Snow
9:43 AM 24.1 °F 14.4 °F 18.0 °F 77% 30.42 in 2.5 mi NW 9.2 mph - 0.00 in Snow Light Snow
9:53 AM 24.1 °F 16.0 °F 18.0 °F 77% 30.47 in 2.0 mi Variable 6.9 mph - 0.00 in Snow Light Snow
10:03 AM 24.1 °F 15.2 °F 18.0 °F 77% 30.43 in 1.8 mi West 8.1 mph - 0.00 in Snow Light Snow
10:11 AM 25.0 °F 18.1 °F 19.0 °F 78% 30.43 in 2.5 mi Variable 5.8 mph - 0.00 in Snow Light Snow
10:22 AM 24.1 °F 13.1 °F 19.0 °F 81% 30.43 in 1.2 mi WNW 11.5 mph - 0.00 in Snow Light Snow
10:32 AM 23.0 °F 11.7 °F 18.0 °F 81% 30.43 in 0.5 mi NW 11.5 mph 20.7 mph 0.01 in Snow Snow
10:43 AM 23.0 °F 11.7 °F 17.1 °F 78% 30.44 in 1.5 mi NW 11.5 mph 19.6 mph 0.01 in Snow Light Snow
10:46 AM 23.0 °F 10.6 °F 17.1 °F 78% 30.44 in 2.0 mi NW 13.8 mph 21.9 mph 0.01 in Snow Light Snow
10:53 AM 23.0 °F 13.1 °F 16.0 °F 74% 30.49 in 4.0 mi NW 9.2 mph 21.9 mph 0.01 in Snow Light Snow
11:53 AM 24.1 °F 14.4 °F 15.1 °F 69% 30.49 in 10.0 mi NW 9.2 mph - 0.00 in   Overcast
12:43 PM 25.0 °F 13.1 °F 12.0 °F 58% 30.44 in 10.0 mi WNW 13.8 mph - N/A   Partly Cloudy
12:53 PM 25.0 °F 18.1 °F 12.9 °F 60% 30.48 in 10.0 mi Variable 5.8 mph - N/A   Partly Cloudy
1:08 PM 27.0 °F 19.5 °F 14.0 °F 58% 30.44 in 10.0 mi Variable 6.9 mph 18.4 mph N/A   Mostly Cloudy
1:53 PM 25.0 °F 16.3 °F 10.0 °F 53% 30.48 in 10.0 mi NW 8.1 mph - N/A   Partly Cloudy
2:53 PM 27.0 °F 20.5 °F 10.0 °F 49% 30.49 in 10.0 mi Variable 5.8 mph - N/A   Mostly Cloudy
3:53 PM 26.1 °F 19.4 °F 6.1 °F 43% 30.51 in 10.0 mi Variable 5.8 mph - N/A   Clear
4:53 PM 24.1 °F 19.7 °F 5.0 °F 44% 30.52 in 10.0 mi WNW 3.5 mph - N/A   Clear
5:53 PM 21.9 °F 15.7 °F 10.0 °F 60% 30.52 in 10.0 mi NNE 4.6 mph - N/A   Clear
6:53 PM 21.0 °F 16.2 °F 8.1 °F 57% 30.53 in 10.0 mi NNE 3.5 mph - N/A   Clear
7:53 PM 19.9 °F - 9.0 °F 62% 30.53 in 10.0 mi Calm Calm - N/A   Clear
8:53 PM 19.0 °F - 9.0 °F 65% 30.53 in 10.0 mi Calm Calm - N/A   Clear
9:53 PM 18.0 °F - 9.0 °F 68% 30.52 in 10.0 mi Calm Calm - N/A   Clear
10:53 PM 19.0 °F 12.3 °F 9.0 °F 65% 30.51 in 10.0 mi NE 4.6 mph - N/A   Clear
11:53 PM 18.0 °F 11.1 °F 9.0 °F 68% 30.49 in 10.0 mi NE 4.6 mph - N/A   Clear